Time,TemperatureF,DewpointF,PressureIn,WindDirection,WindDirectionDegrees,WindSpeedMPH,WindSpeedGustMPH,Humidity,HourlyPrecipIn,Conditions,Clouds,dailyrainin,SolarRadiationWatts/m^2,SoftwareType,DateUTC
2013-01-19 00:03:00,11.5,7.1,30.71,NNE,12,0.0,1.0,82,0.00,,CLR,0.00,0.00,VWS V14.01,2013-01-19 08:03:00,
2013-01-19 00:08:00,11.3,6.9,30.71,NNE,12,1.0,2.0,82,0.00,,CLR,0.00,0.00,VWS V14.01,2013-01-19 08:08:00,
2013-01-19 00:13:00,11.2,6.8,30.71,NNE,12,0.0,2.0,82,0.00,,CLR,0.00,0.00,VWS V14.01,2013-01-19 08:13:00,
2013-01-19 00:18:00,11.0,6.6,30.71,NNE,12,0.0,0.0,82,0.00,,CLR,0.00,0.00,VWS V14.01,2013-01-19 08:18:00,
2013-01-19 00:23:00,10.8,6.4,30.71,NNE,12,0.0,1.0,82,0.00,,CLR,0.00,0.00,VWS V14.01,2013-01-19 08:23:00,
2013-01-19 00:28:00,10.6,6.2,30.71,NNE,12,0.0,0.0,82,0.00,,CLR,0.00,0.00,VWS V14.01,2013-01-19 08:28:00,
2013-01-19 00:33:00,10.3,5.9,30.71,NNE,12,0.0,2.0,82,0.00,,CLR,0.00,0.00,VWS V14.01,2013-01-19 08:33:00,
2013-01-19 00:38:00,10.1,5.7,30.71,NNE,12,0.0,0.0,82,0.00,,CLR,0.00,0.00,VWS V14.01,2013-01-19 08:38:00,
2013-01-19 00:43:00,10.0,5.6,30.71,NNE,12,0.0,0.0,82,0.00,,CLR,0.00,0.00,VWS V14.01,2013-01-19 08:43:00,
2013-01-19 00:48:00,9.8,5.4,30.71,NNE,12,2.0,2.0,82,0.00,,CLR,0.00,0.00,VWS V14.01,2013-01-19 08:48:00,
2013-01-19 00:53:00,9.6,5.5,30.71,NNE,12,0.0,1.0,83,0.00,,CLR,0.00,0.00,VWS V14.01,2013-01-19 08:53:00,
2013-01-19 00:58:00,9.4,5.3,30.71,NNE,12,1.0,2.0,83,0.00,,CLR,0.00,0.00,VWS V14.01,2013-01-19 08:58:00,
2013-01-19 01:03:00,9.4,5.6,30.71,NNE,12,1.0,1.0,84,0.00,,CLR,0.00,0.00,VWS V14.01,2013-01-19 09:03:00,
2013-01-19 01:08:00,9.3,5.2,30.71,NNE,12,0.0,0.0,83,0.00,,CLR,0.00,0.00,VWS V14.01,2013-01-19 09:08:00,
2013-01-19 01:13:00,9.1,5.0,30.71,NNE,12,0.0,0.0,83,0.00,,CLR,0.00,0.00,VWS V14.01,2013-01-19 09:13:00,
2013-01-19 01:18:00,9.0,5.2,30.71,NNE,12,0.0,0.0,84,0.00,,CLR,0.00,0.00,VWS V14.01,2013-01-19 09:18:00,
2013-01-19 01:23:00,8.9,5.1,30.71,NNE,12,0.0,0.0,84,0.00,,CLR,0.00,0.00,VWS V14.01,2013-01-19 09:23:00,
2013-01-19 01:28:00,8.7,4.9,30.72,NNE,12,0.0,0.0,84,0.00,,CLR,0.00,0.00,VWS V14.01,2013-01-19 09:28:00,
2013-01-19 01:33:00,8.6,4.8,30.72,NNE,12,0.0,0.0,84,0.00,,CLR,0.00,0.00,VWS V14.01,2013-01-19 09:33:00,
2013-01-19 01:38:00,8.6,4.8,30.72,NNE,12,0.0,0.0,84,0.00,,CLR,0.00,0.00,VWS V14.01,2013-01-19 09:38:00,
2013-01-19 01:43:00,8.4,4.3,30.72,NNE,12,0.0,0.0,83,0.00,,CLR,0.00,0.00,VWS V14.01,2013-01-19 09:43:00,
2013-01-19 01:48:00,8.3,4.2,30.72,NNE,12,0.0,0.0,83,0.00,,CLR,0.00,0.00,VWS V14.01,2013-01-19 09:48:00,
2013-01-19 01:53:00,8.1,4.0,30.73,NNE,12,0.0,0.0,83,0.00,,CLR,0.00,0.00,VWS V14.01,2013-01-19 09:53:00,
2013-01-19 01:58:00,8.0,3.9,30.72,NNE,12,0.0,0.0,83,0.00,,CLR,0.00,0.00,VWS V14.01,2013-01-19 09:58:00,
2013-01-19 02:03:00,7.9,3.8,30.72,NNE,12,0.0,0.0,83,0.00,,CLR,0.00,0.00,VWS V14.01,2013-01-19 10:03:00,
2013-01-19 02:08:00,7.7,3.6,30.72,NNE,12,0.0,0.0,83,0.00,,CLR,0.00,0.00,VWS V14.01,2013-01-19 10:08:00,
2013-01-19 02:13:00,7.6,3.5,30.72,NNE,12,0.0,0.0,83,0.00,,CLR,0.00,0.00,VWS V14.01,2013-01-19 10:13:00,
2013-01-19 02:18:00,7.4,3.6,30.73,NNE,12,0.0,0.0,84,0.00,,CLR,0.00,0.00,VWS V14.01,2013-01-19 10:18:00,
2013-01-19 02:23:00,7.4,3.6,30.73,NNE,12,0.0,0.0,84,0.00,,CLR,0.00,0.00,VWS V14.01,2013-01-19 10:23:00,
2013-01-19 02:28:00,7.4,3.6,30.73,NNE,12,0.0,0.0,84,0.00,,CLR,0.00,0.00,VWS V14.01,2013-01-19 10:28:00,
2013-01-19 02:33:00,7.4,3.6,30.72,NNE,12,0.0,0.0,84,0.00,,CLR,0.00,0.00,VWS V14.01,2013-01-19 10:33:00,
2013-01-19 02:39:00,7.3,3.5,30.72,NNE,12,0.0,0.0,84,0.00,,CLR,0.00,0.00,VWS V14.01,2013-01-19 10:39:00,
2013-01-19 02:44:00,7.2,3.4,30.72,NNE,12,0.0,0.0,84,0.00,,CLR,0.00,0.00,VWS V14.01,2013-01-19 10:44:00,
2013-01-19 02:49:00,7.2,3.4,30.72,NNE,12,0.0,0.0,84,0.00,,CLR,0.00,0.00,VWS V14.01,2013-01-19 10:49:00,
2013-01-19 02:54:00,7.1,3.3,30.73,NNE,12,0.0,0.0,84,0.00,,CLR,0.00,0.00,VWS V14.01,2013-01-19 10:54:00,
2013-01-19 02:59:00,7.1,3.3,30.73,NNE,12,0.0,0.0,84,0.00,,CLR,0.00,0.00,VWS V14.01,2013-01-19 10:59:00,
2013-01-19 03:04:00,7.0,3.2,30.72,NNE,12,0.0,0.0,84,0.00,,CLR,0.00,0.00,VWS V14.01,2013-01-19 11:04:00,
2013-01-19 03:09:00,6.7,2.9,30.73,NNE,12,0.0,0.0,84,0.00,,CLR,0.00,0.00,VWS V14.01,2013-01-19 11:09:00,
2013-01-19 03:14:00,6.6,2.8,30.73,NNE,12,0.0,0.0,84,0.00,,CLR,0.00,0.00,VWS V14.01,2013-01-19 11:14:00,
2013-01-19 04:48:00,5.3,1.5,30.72,NNE,12,0.0,0.0,84,0.00,,CLR,0.00,0.00,VWS V14.01,2013-01-19 12:48:00,
2013-01-19 04:49:00,5.2,1.4,30.72,NNE,12,0.0,0.0,84,0.00,,CLR,0.00,0.00,VWS V14.01,2013-01-19 12:49:00,
2013-01-19 04:54:00,5.2,1.4,30.72,NNE,12,0.0,0.0,84,0.00,,CLR,0.00,0.00,VWS V14.01,2013-01-19 12:54:00,
2013-01-19 04:59:00,5.1,1.3,30.73,NNE,12,0.0,0.0,84,0.00,,CLR,0.00,0.00,VWS V14.01,2013-01-19 12:59:00,
2013-01-19 05:04:00,5.0,1.2,30.72,NNE,12,0.0,0.0,84,0.00,,,0.00,0.00,VWS V14.01,2013-01-19 13:04:00,
2013-01-19 05:09:00,4.9,0.9,30.72,NNE,12,0.0,0.0,83,0.00,,,0.00,0.00,VWS V14.01,2013-01-19 13:09:00,
2013-01-19 05:14:00,4.8,0.8,30.73,NNE,12,0.0,0.0,83,0.00,,,0.00,0.00,VWS V14.01,2013-01-19 13:14:00,
2013-01-19 05:19:00,4.7,0.7,30.72,NNE,12,0.0,0.0,83,0.00,,,0.00,0.00,VWS V14.01,2013-01-19 13:19:00,
2013-01-19 05:24:00,4.6,0.6,30.73,NNE,12,0.0,0.0,83,0.00,,,0.00,0.00,VWS V14.01,2013-01-19 13:24:00,
2013-01-19 05:29:00,4.5,0.5,30.73,NNE,12,0.0,0.0,83,0.00,,,0.00,0.00,VWS V14.01,2013-01-19 13:29:00,
2013-01-19 05:34:00,4.4,0.4,30.73,NNE,12,0.0,0.0,83,0.00,,,0.00,0.00,VWS V14.01,2013-01-19 13:34:00,
2013-01-19 05:39:00,4.2,0.2,30.73,NNE,12,0.0,0.0,83,0.00,,,0.00,0.00,VWS V14.01,2013-01-19 13:39:00,
2013-01-19 05:44:00,4.1,0.1,30.73,NNE,12,0.0,0.0,83,0.00,,,0.00,0.00,VWS V14.01,2013-01-19 13:44:00,
2013-01-19 05:49:00,4.0,0.0,30.73,NNE,12,0.0,0.0,83,0.00,,,0.00,0.00,VWS V14.01,2013-01-19 13:49:00,
2013-01-19 05:54:00,4.1,0.1,30.73,NNE,12,0.0,0.0,83,0.00,,,0.00,0.00,VWS V14.01,2013-01-19 13:54:00,
2013-01-19 05:59:00,4.1,0.1,30.73,NNE,12,0.0,0.0,83,0.00,,,0.00,0.00,VWS V14.01,2013-01-19 13:59:00,
2013-01-19 06:04:00,4.1,0.3,30.73,NNE,12,0.0,0.0,84,0.00,,BKN002,0.00,0.00,VWS V14.01,2013-01-19 14:04:00,
2013-01-19 06:09:00,4.0,0.2,30.73,NNE,12,0.0,0.0,84,0.00,,,0.00,0.00,VWS V14.01,2013-01-19 14:09:00,
2013-01-19 06:14:00,3.9,0.2,30.74,NNE,12,0.0,0.0,84,0.00,,,0.00,0.00,VWS V14.01,2013-01-19 14:14:00,
2013-01-19 06:19:00,3.9,0.2,30.74,NNE,12,0.0,0.0,84,0.00,,,0.00,0.00,VWS V14.01,2013-01-19 14:19:00,
2013-01-19 06:24:00,3.9,0.2,30.74,NNE,12,0.0,0.0,84,0.00,,,0.00,0.00,VWS V14.01,2013-01-19 14:24:00,
2013-01-19 06:29:00,3.9,0.2,30.74,NNE,12,0.0,0.0,84,0.00,,,0.00,0.00,VWS V14.01,2013-01-19 14:29:00,
2013-01-19 06:34:00,3.9,0.2,30.74,NNE,12,0.0,0.0,84,0.00,,,0.00,0.00,VWS V14.01,2013-01-19 14:34:00,
2013-01-19 06:39:00,3.9,0.2,30.74,NNE,12,0.0,0.0,84,0.00,,,0.00,0.00,VWS V14.01,2013-01-19 14:39:00,
2013-01-19 06:44:00,3.8,0.1,30.74,NNE,12,0.0,0.0,84,0.00,,,0.00,0.00,VWS V14.01,2013-01-19 14:44:00,
2013-01-19 06:49:00,3.8,0.1,30.74,NNE,12,0.0,0.0,84,0.00,,,0.00,0.00,VWS V14.01,2013-01-19 14:49:00,
2013-01-19 06:54:00,3.8,0.1,30.75,NNE,12,1.0,1.0,84,0.00,,,0.00,0.00,VWS V14.01,2013-01-19 14:54:00,
2013-01-19 06:59:00,3.6,-0.1,30.75,NNE,12,2.0,2.0,84,0.00,,,0.00,0.00,VWS V14.01,2013-01-19 14:59:00,
2013-01-19 07:04:00,3.6,-0.1,30.75,NNE,12,0.0,1.0,84,0.00,,,0.00,0.00,VWS V14.01,2013-01-19 15:04:00,
2013-01-19 07:09:00,3.6,-0.1,30.75,NNE,12,0.0,1.0,84,0.00,,,0.00,0.00,VWS V14.01,2013-01-19 15:09:00,
2013-01-19 07:14:00,3.5,-0.2,30.75,NNE,12,0.0,0.0,84,0.00,,,0.00,5.00,VWS V14.01,2013-01-19 15:14:00,
2013-01-19 07:19:00,3.4,-0.3,30.75,NNE,12,0.0,0.0,84,0.00,,,0.00,7.00,VWS V14.01,2013-01-19 15:19:00,
2013-01-19 07:24:00,3.4,-0.3,30.75,NNE,12,0.0,0.0,84,0.00,,,0.00,11.00,VWS V14.01,2013-01-19 15:24:00,
2013-01-19 07:29:00,3.2,-0.5,30.75,NNE,12,0.0,0.0,84,0.00,,,0.00,14.00,VWS V14.01,2013-01-19 15:29:00,
2013-01-19 07:34:00,3.6,-0.1,30.75,NNE,12,0.0,0.0,84,0.00,,,0.00,18.00,VWS V14.01,2013-01-19 15:34:00,
2013-01-19 08:33:00,12.7,9.1,30.76,North,0,0.0,0.0,85,0.00,,,0.00,113.00,VWS V14.01,2013-01-19 16:33:00,
2013-01-19 08:38:00,14.1,10.4,30.77,NNE,12,0.0,1.0,85,0.00,,,0.00,163.00,VWS V14.01,2013-01-19 16:38:00,
2013-01-19 08:43:00,14.9,11.2,30.77,ESE,120,0.0,2.0,85,0.00,,,0.00,176.00,VWS V14.01,2013-01-19 16:43:00,
2013-01-19 08:48:00,15.1,11.1,30.77,ESE,120,0.0,2.0,84,0.00,,,0.00,193.00,VWS V14.01,2013-01-19 16:48:00,
2013-01-19 08:53:00,15.6,11.6,30.77,ESE,120,0.0,1.0,84,0.00,,,0.00,207.00,VWS V14.01,2013-01-19 16:53:00,
2013-01-19 08:58:00,16.5,12.2,30.77,ESE,120,0.0,1.0,83,0.00,,,0.00,221.00,VWS V14.01,2013-01-19 16:58:00,
2013-01-19 09:03:00,17.3,13.0,30.77,ESE,120,0.0,1.0,83,0.00,,,0.00,236.00,VWS V14.01,2013-01-19 17:03:00,
2013-01-19 09:08:00,18.5,13.9,30.77,ESE,120,0.0,1.0,82,0.00,,,0.00,248.00,VWS V14.01,2013-01-19 17:08:00,
2013-01-19 09:13:00,19.1,13.7,30.77,ESE,120,0.0,0.0,79,0.00,,,0.00,258.00,VWS V14.01,2013-01-19 17:13:00,
2013-01-19 09:18:00,19.5,14.1,30.77,ESE,120,0.0,0.0,79,0.00,,,0.00,274.00,VWS V14.01,2013-01-19 17:18:00,
2013-01-19 09:23:00,20.6,15.4,30.78,ESE,120,0.0,0.0,80,0.00,,,0.00,290.00,VWS V14.01,2013-01-19 17:23:00,
2013-01-19 09:28:00,20.7,14.9,30.78,ESE,120,0.0,0.0,78,0.00,,,0.00,304.00,VWS V14.01,2013-01-19 17:28:00,
2013-01-19 09:33:00,20.9,14.5,30.78,ESE,120,0.0,1.0,76,0.00,,,0.00,315.00,VWS V14.01,2013-01-19 17:33:00,
2013-01-19 09:38:00,20.3,14.3,30.78,ESE,115,0.0,1.0,77,0.00,,,0.00,325.00,VWS V14.01,2013-01-19 17:38:00,
2013-01-19 09:44:00,20.8,14.4,30.78,ESE,115,0.0,1.0,76,0.00,,,0.00,338.00,VWS V14.01,2013-01-19 17:44:00,
2013-01-19 09:48:00,22.5,15.8,30.78,ESE,115,0.0,1.0,75,0.00,,,0.00,350.00,VWS V14.01,2013-01-19 17:48:00,
2013-01-19 09:54:00,21.3,14.3,30.78,ENE,57,0.0,3.0,74,0.00,,,0.00,360.00,VWS V14.01,2013-01-19 17:54:00,
2013-01-19 09:59:00,21.9,15.5,30.78,ENE,57,1.0,2.0,76,0.00,,,0.00,373.00,VWS V14.01,2013-01-19 17:59:00,
2013-01-19 10:04:00,22.7,15.7,30.78,ENE,57,0.0,2.0,74,0.00,,CLR,0.00,388.00,VWS V14.01,2013-01-19 18:04:00,
2013-01-19 10:09:00,23.6,16.2,30.78,ENE,74,0.0,3.0,73,0.00,,CLR,0.00,394.00,VWS V14.01,2013-01-19 18:09:00,
2013-01-19 10:14:00,23.0,15.6,30.78,ENE,74,0.0,0.0,73,0.00,,CLR,0.00,404.00,VWS V14.01,2013-01-19 18:14:00,
2013-01-19 10:19:00,24.2,16.2,30.78,East,96,0.0,3.0,71,0.00,,CLR,0.00,411.00,VWS V14.01,2013-01-19 18:19:00,
2013-01-19 10:24:00,25.6,16.9,30.77,East,96,0.0,1.0,69,0.00,,CLR,0.00,417.00,VWS V14.01,2013-01-19 18:24:00,
2013-01-19 10:29:00,24.8,15.8,30.77,ESE,123,2.0,3.0,68,0.00,,CLR,0.00,429.00,VWS V14.01,2013-01-19 18:29:00,
2013-01-19 10:34:00,25.1,16.7,30.77,ESE,123,0.0,2.0,70,0.00,,CLR,0.00,436.00,VWS V14.01,2013-01-19 18:34:00,
2013-01-19 10:39:00,24.1,15.4,30.77,East,85,2.0,3.0,69,0.00,,CLR,0.00,441.00,VWS V14.01,2013-01-19 18:39:00,
2013-01-19 10:44:00,24.3,15.9,30.77,NE,50,1.0,4.0,70,0.00,,CLR,0.00,450.00,VWS V14.01,2013-01-19 18:44:00,
2013-01-19 10:49:00,24.3,15.9,30.76,ENE,57,0.0,3.0,70,0.00,,CLR,0.00,455.00,VWS V14.01,2013-01-19 18:49:00,
2013-01-19 10:54:00,25.2,16.5,30.76,NNE,31,0.0,3.0,69,0.00,,CLR,0.00,462.00,VWS V14.01,2013-01-19 18:54:00,
2013-01-19 11:00:00,26.6,16.8,30.76,East,80,0.0,3.0,66,0.00,,CLR,0.00,468.00,VWS V14.01,2013-01-19 19:00:00,
2013-01-19 11:05:00,26.9,17.1,30.76,East,97,2.0,4.0,66,0.00,,CLR,0.00,473.00,VWS V14.01,2013-01-19 19:05:00,
2013-01-19 11:10:00,27.0,16.8,30.75,SE,132,0.0,4.0,65,0.00,,CLR,0.00,478.00,VWS V14.01,2013-01-19 19:10:00,
2013-01-19 11:15:00,27.3,17.1,30.75,East,101,2.0,5.0,65,0.00,,CLR,0.00,483.00,VWS V14.01,2013-01-19 19:15:00,
2013-01-19 11:20:00,27.1,16.9,30.75,NE,34,0.0,3.0,65,0.00,,CLR,0.00,487.00,VWS V14.01,2013-01-19 19:20:00,
2013-01-19 11:25:00,28.6,17.2,30.75,SE,129,1.0,4.0,62,0.00,,CLR,0.00,490.00,VWS V14.01,2013-01-19 19:25:00,
2013-01-19 11:30:00,29.0,17.6,30.74,NE,53,4.0,4.0,62,0.00,,CLR,0.00,496.00,VWS V14.01,2013-01-19 19:30:00,
2013-01-19 11:35:00,27.2,16.3,30.74,NE,50,4.0,5.0,63,0.00,,CLR,0.00,499.00,VWS V14.01,2013-01-19 19:35:00,
2013-01-19 11:40:00,27.4,17.2,30.73,ENE,77,3.0,4.0,65,0.00,,CLR,0.00,501.00,VWS V14.01,2013-01-19 19:40:00,
2013-01-19 11:45:00,28.1,17.5,30.73,East,84,1.0,1.0,64,0.00,,CLR,0.00,503.00,VWS V14.01,2013-01-19 19:45:00,
2013-01-19 11:50:00,29.5,17.7,30.73,East,101,5.0,5.0,61,0.00,,CLR,0.00,506.00,VWS V14.01,2013-01-19 19:50:00,
2013-01-19 11:55:00,28.9,16.8,30.73,NNE,32,3.0,4.0,60,0.00,,CLR,0.00,506.00,VWS V14.01,2013-01-19 19:55:00,
2013-01-19 12:01:00,29.7,18.3,30.72,ENE,67,1.0,1.0,62,0.00,,CLR,0.00,504.00,VWS V14.01,2013-01-19 20:01:00,
2013-01-19 12:06:00,30.0,17.4,30.72,NE,48,0.0,3.0,59,0.00,,CLR,0.00,506.00,VWS V14.01,2013-01-19 20:06:00,
2013-01-19 12:11:00,29.9,16.9,30.72,ENE,74,0.0,1.0,58,0.00,,CLR,0.00,508.00,VWS V14.01,2013-01-19 20:11:00,
2013-01-19 12:17:00,32.6,18.7,30.71,ENE,77,1.0,1.0,56,0.00,,CLR,0.00,508.00,VWS V14.01,2013-01-19 20:17:00,
2013-01-19 12:22:00,30.4,17.0,30.71,NNE,30,4.0,7.0,57,0.00,,CLR,0.00,508.00,VWS V14.01,2013-01-19 20:22:00,
2013-01-19 12:27:00,30.1,17.5,30.70,East,101,3.0,3.0,59,0.00,,CLR,0.00,506.00,VWS V14.01,2013-01-19 20:27:00,
2013-01-19 12:32:00,31.6,18.1,30.70,East,96,2.0,3.0,57,0.00,,CLR,0.00,508.00,VWS V14.01,2013-01-19 20:32:00,
2013-01-19 12:37:00,31.6,17.3,30.70,ENE,62,0.0,3.0,55,0.00,,CLR,0.00,503.00,VWS V14.01,2013-01-19 20:37:00,
2013-01-19 12:42:00,31.0,17.6,30.70,NNE,30,2.0,4.0,57,0.00,,CLR,0.00,501.00,VWS V14.01,2013-01-19 20:42:00,
2013-01-19 12:48:00,31.8,17.5,30.70,NE,44,3.0,6.0,55,0.00,,CLR,0.00,497.00,VWS V14.01,2013-01-19 20:48:00,
2013-01-19 12:53:00,31.7,17.8,30.69,ENE,67,0.0,3.0,56,0.00,,CLR,0.00,496.00,VWS V14.01,2013-01-19 20:53:00,
2013-01-19 12:58:00,32.2,17.4,30.69,East,90,0.0,5.0,54,0.00,,CLR,0.00,489.00,VWS V14.01,2013-01-19 20:58:00,
2013-01-19 13:03:00,32.1,17.3,30.69,ENE,61,3.0,5.0,54,0.00,,CLR,0.00,487.00,VWS V14.01,2013-01-19 21:03:00,
2013-01-19 13:08:00,32.0,17.7,30.69,East,98,1.0,5.0,55,0.00,,CLR,0.00,483.00,VWS V14.01,2013-01-19 21:08:00,
2013-01-19 13:14:00,33.5,18.2,30.68,East,92,0.0,5.0,53,0.00,,CLR,0.00,478.00,VWS V14.01,2013-01-19 21:14:00,
2013-01-19 13:19:00,33.7,18.0,30.68,ESE,103,2.0,4.0,52,0.00,,CLR,0.00,473.00,VWS V14.01,2013-01-19 21:19:00,
2013-01-19 13:24:00,34.5,18.2,30.68,East,84,3.0,6.0,51,0.00,,CLR,0.00,468.00,VWS V14.01,2013-01-19 21:24:00,
2013-01-19 13:29:00,33.4,17.7,30.68,NE,35,1.0,4.0,52,0.00,,CLR,0.00,462.00,VWS V14.01,2013-01-19 21:29:00,
2013-01-19 13:34:00,33.7,18.0,30.67,NE,37,1.0,4.0,52,0.00,,CLR,0.00,455.00,VWS V14.01,2013-01-19 21:34:00,
2013-01-19 13:40:00,34.0,17.8,30.67,NE,53,3.0,5.0,51,0.00,,CLR,0.00,446.00,VWS V14.01,2013-01-19 21:40:00,
2013-01-19 13:45:00,34.4,18.2,30.67,NE,53,0.0,3.0,51,0.00,,CLR,0.00,439.00,VWS V14.01,2013-01-19 21:45:00,
2013-01-19 13:50:00,33.6,17.4,30.67,NE,46,1.0,5.0,51,0.00,,CLR,0.00,434.00,VWS V14.01,2013-01-19 21:50:00,
2013-01-19 13:55:00,34.4,18.2,30.67,NE,50,2.0,5.0,51,0.00,,CLR,0.00,425.00,VWS V14.01,2013-01-19 21:55:00,
2013-01-19 14:00:00,34.4,18.2,30.67,ENE,65,0.0,4.0,51,0.00,,CLR,0.00,413.00,VWS V14.01,2013-01-19 22:00:00,
2013-01-19 14:05:00,34.7,18.0,30.66,ENE,74,2.0,5.0,50,0.00,,CLR,0.00,408.00,VWS V14.01,2013-01-19 22:05:00,
2013-01-19 14:10:00,35.3,18.1,30.66,ENE,75,0.0,3.0,49,0.00,,CLR,0.00,399.00,VWS V14.01,2013-01-19 22:10:00,
2013-01-19 14:15:00,34.8,18.5,30.66,East,101,1.0,5.0,51,0.00,,CLR,0.00,390.00,VWS V14.01,2013-01-19 22:15:00,
2013-01-19 14:20:00,35.2,18.4,30.66,ENE,72,7.0,7.0,50,0.00,,CLR,0.00,380.00,VWS V14.01,2013-01-19 22:20:00,
2013-01-19 14:25:00,34.2,17.5,30.66,East,80,1.0,7.0,50,0.00,,CLR,0.00,367.00,VWS V14.01,2013-01-19 22:25:00,
2013-01-19 14:30:00,35.1,18.4,30.66,East,94,2.0,2.0,50,0.00,,CLR,0.00,359.00,VWS V14.01,2013-01-19 22:30:00,
2013-01-19 14:35:00,34.4,17.7,30.66,NE,55,2.0,3.0,50,0.00,,CLR,0.00,348.00,VWS V14.01,2013-01-19 22:35:00,
2013-01-19 14:40:00,35.5,18.7,30.65,East,100,0.0,1.0,50,0.00,,CLR,0.00,338.00,VWS V14.01,2013-01-19 22:40:00,
2013-01-19 14:45:00,34.9,17.7,30.65,ENE,69,0.0,2.0,49,0.00,,CLR,0.00,327.00,VWS V14.01,2013-01-19 22:45:00,
2013-01-19 14:50:00,35.6,18.3,30.65,NE,53,3.0,4.0,49,0.00,,CLR,0.00,316.00,VWS V14.01,2013-01-19 22:50:00,
2013-01-19 14:55:00,34.8,17.6,30.65,ENE,61,2.0,4.0,49,0.00,,CLR,0.00,301.00,VWS V14.01,2013-01-19 22:55:00,
2013-01-19 15:00:00,34.5,17.8,30.65,ENE,77,1.0,1.0,50,0.00,,CLR,0.00,287.00,VWS V14.01,2013-01-19 23:00:00,
2013-01-19 15:05:00,34.4,17.7,30.65,ENE,61,0.0,1.0,50,0.00,,CLR,0.00,272.00,VWS V14.01,2013-01-19 23:05:00,
2013-01-19 15:10:00,34.6,17.9,30.65,NNE,24,4.0,4.0,50,0.00,,CLR,0.00,258.00,VWS V14.01,2013-01-19 23:10:00,
2013-01-19 15:15:00,34.4,18.2,30.65,NNE,18,0.0,0.0,51,0.00,,CLR,0.00,243.00,VWS V14.01,2013-01-19 23:15:00,
2013-01-19 15:20:00,34.9,17.7,30.65,NNE,26,1.0,2.0,49,0.00,,CLR,0.00,225.00,VWS V14.01,2013-01-19 23:20:00,
2013-01-19 15:26:00,34.4,17.7,30.65,NNE,19,2.0,3.0,50,0.00,,CLR,0.00,209.00,VWS V14.01,2013-01-19 23:26:00,
2013-01-19 15:31:00,34.1,17.4,30.65,North,360,3.0,3.0,50,0.00,,CLR,0.00,195.00,VWS V14.01,2013-01-19 23:31:00,
2013-01-19 15:36:00,34.3,17.6,30.65,NNE,28,1.0,2.0,50,0.00,,CLR,0.00,179.00,VWS V14.01,2013-01-19 23:36:00,
2013-01-19 15:41:00,34.8,18.1,30.65,ENE,74,0.0,0.0,50,0.00,,CLR,0.00,158.00,VWS V14.01,2013-01-19 23:41:00,
2013-01-19 15:47:00,34.1,17.4,30.65,NE,35,0.0,1.0,50,0.00,,CLR,0.00,144.00,VWS V14.01,2013-01-19 23:47:00,
2013-01-19 15:52:00,34.0,17.3,30.65,NE,35,0.0,1.0,50,0.00,,CLR,0.00,127.00,VWS V14.01,2013-01-19 23:52:00,
2013-01-19 15:57:00,34.6,17.4,30.65,ENE,63,0.0,1.0,49,0.00,,CLR,0.00,107.00,VWS V14.01,2013-01-19 23:57:00,
2013-01-19 16:02:00,34.2,17.5,30.65,ENE,58,2.0,4.0,50,0.00,,FEW150,0.00,97.00,VWS V14.01,2013-01-20 00:02:00,
2013-01-19 16:07:00,34.4,17.7,30.65,ENE,58,0.0,3.0,50,0.00,,FEW150,0.00,81.00,VWS V14.01,2013-01-20 00:07:00,
2013-01-19 16:12:00,34.5,17.8,30.65,ENE,58,0.0,1.0,50,0.00,,FEW150,0.00,67.00,VWS V14.01,2013-01-20 00:12:00,
2013-01-19 16:17:00,33.9,17.2,30.65,NE,49,4.0,4.0,50,0.00,,FEW150,0.00,53.00,VWS V14.01,2013-01-20 00:17:00,
2013-01-19 16:22:00,33.8,17.6,30.65,ENE,65,0.0,2.0,51,0.00,,FEW150,0.00,39.00,VWS V14.01,2013-01-20 00:22:00,
2013-01-19 16:27:00,33.5,17.3,30.65,ENE,65,1.0,3.0,51,0.00,,FEW150,0.00,28.00,VWS V14.01,2013-01-20 00:27:00,
2013-01-19 16:33:00,33.3,17.1,30.65,ENE,65,0.0,1.0,51,0.00,,FEW150,0.00,21.00,VWS V14.01,2013-01-20 00:33:00,
2013-01-19 16:38:00,32.7,17.0,30.65,ENE,65,2.0,3.0,52,0.00,,FEW150,0.00,19.00,VWS V14.01,2013-01-20 00:38:00,
2013-01-19 16:43:00,32.4,16.8,30.65,ENE,65,0.0,1.0,52,0.00,,FEW150,0.00,16.00,VWS V14.01,2013-01-20 00:43:00,
2013-01-19 16:48:00,32.0,16.8,30.65,ENE,65,1.0,3.0,53,0.00,,FEW150,0.00,11.00,VWS V14.01,2013-01-20 00:48:00,
2013-01-19 16:53:00,31.7,16.5,30.65,ENE,65,0.0,1.0,53,0.00,,FEW150,0.00,9.00,VWS V14.01,2013-01-20 00:53:00,
2013-01-19 16:58:00,31.3,16.2,30.65,ENE,65,1.0,2.0,53,0.00,,FEW150,0.00,5.00,VWS V14.01,2013-01-20 00:58:00,
2013-01-19 17:03:00,30.9,16.2,30.65,ENE,65,1.0,1.0,54,0.00,,FEW150,0.00,0.00,VWS V14.01,2013-01-20 01:03:00,
2013-01-19 17:08:00,30.7,16.5,30.65,ENE,65,0.0,1.0,55,0.00,,FEW150,0.00,0.00,VWS V14.01,2013-01-20 01:08:00,
2013-01-19 17:14:00,30.4,16.2,30.65,ENE,65,0.0,1.0,55,0.00,,FEW150,0.00,0.00,VWS V14.01,2013-01-20 01:14:00,
2013-01-19 17:19:00,30.2,16.4,30.65,ENE,65,1.0,2.0,56,0.00,,FEW150,0.00,0.00,VWS V14.01,2013-01-20 01:19:00,
2013-01-19 17:24:00,29.9,16.1,30.65,ENE,65,1.0,2.0,56,0.00,,FEW150,0.00,0.00,VWS V14.01,2013-01-20 01:24:00,
2013-01-19 17:29:00,29.5,15.8,30.66,ENE,65,1.0,2.0,56,0.00,,FEW150,0.00,0.00,VWS V14.01,2013-01-20 01:29:00,
2013-01-19 17:34:00,29.0,15.7,30.66,ENE,65,0.0,2.0,57,0.00,,FEW150,0.00,0.00,VWS V14.01,2013-01-20 01:34:00,
2013-01-19 17:39:00,28.7,15.4,30.66,ENE,65,0.0,0.0,57,0.00,,FEW150,0.00,0.00,VWS V14.01,2013-01-20 01:39:00,
2013-01-19 17:44:00,28.7,15.4,30.66,ENE,65,0.0,0.0,57,0.00,,FEW150,0.00,0.00,VWS V14.01,2013-01-20 01:44:00,
2013-01-19 17:49:00,28.4,15.1,30.66,ENE,65,0.0,0.0,57,0.00,,FEW150,0.00,0.00,VWS V14.01,2013-01-20 01:49:00,
2013-01-19 17:54:00,27.9,15.1,30.66,ENE,65,0.0,1.0,58,0.00,,FEW150,0.00,0.00,VWS V14.01,2013-01-20 01:54:00,
2013-01-19 17:59:00,27.3,14.9,30.66,ENE,65,0.0,1.0,59,0.00,,FEW150,0.00,0.00,VWS V14.01,2013-01-20 01:59:00,
2013-01-19 18:04:00,27.0,15.0,30.67,ENE,65,0.0,0.0,60,0.00,,FEW150,0.00,0.00,VWS V14.01,2013-01-20 02:04:00,
2013-01-19 18:09:00,26.3,14.7,30.67,ENE,65,0.0,1.0,61,0.00,,FEW150,0.00,0.00,VWS V14.01,2013-01-20 02:09:00,
2013-01-19 18:14:00,25.8,14.2,30.67,ENE,65,0.0,0.0,61,0.00,,FEW150,0.00,0.00,VWS V14.01,2013-01-20 02:14:00,
2013-01-19 18:19:00,25.5,14.3,30.67,ENE,65,0.0,0.0,62,0.00,,FEW150,0.00,0.00,VWS V14.01,2013-01-20 02:19:00,
2013-01-19 18:24:00,25.3,14.1,30.67,ENE,65,0.0,0.0,62,0.00,,FEW150,0.00,0.00,VWS V14.01,2013-01-20 02:24:00,
2013-01-19 18:29:00,25.1,13.9,30.67,ENE,65,0.0,0.0,62,0.00,,FEW150,0.00,0.00,VWS V14.01,2013-01-20 02:29:00,
2013-01-19 18:34:00,24.7,13.6,30.67,ENE,65,0.0,0.0,62,0.00,,FEW150,0.00,0.00,VWS V14.01,2013-01-20 02:34:00,
2013-01-19 18:39:00,24.4,13.6,30.67,ENE,65,0.0,0.0,63,0.00,,FEW150,0.00,0.00,VWS V14.01,2013-01-20 02:39:00,
2013-01-19 18:45:00,24.0,14.0,30.67,ENE,65,2.0,2.0,65,0.00,,FEW150,0.00,0.00,VWS V14.01,2013-01-20 02:45:00,
2013-01-19 18:50:00,23.6,14.3,30.67,ENE,66,1.0,3.0,67,0.00,,FEW150,0.00,0.00,VWS V14.01,2013-01-20 02:50:00,
2013-01-19 18:55:00,23.4,14.1,30.67,ENE,66,0.0,1.0,67,0.00,,FEW150,0.00,0.00,VWS V14.01,2013-01-20 02:55:00,
2013-01-19 19:00:00,23.2,14.2,30.67,ENE,66,0.0,1.0,68,0.00,,FEW150,0.00,0.00,VWS V14.01,2013-01-20 03:00:00,
2013-01-19 19:05:00,22.9,13.9,30.68,ENE,66,0.0,1.0,68,0.00,,CLR,0.00,0.00,VWS V14.01,2013-01-20 03:05:00,
2013-01-19 19:10:00,22.8,14.2,30.68,ENE,66,0.0,1.0,69,0.00,,CLR,0.00,0.00,VWS V14.01,2013-01-20 03:10:00,
2013-01-19 19:15:00,22.6,14.0,30.68,ENE,66,0.0,0.0,69,0.00,,CLR,0.00,0.00,VWS V14.01,2013-01-20 03:15:00,
2013-01-19 19:20:00,22.5,14.2,30.68,ENE,66,0.0,0.0,70,0.00,,CLR,0.00,0.00,VWS V14.01,2013-01-20 03:20:00,
2013-01-19 19:25:00,22.5,14.2,30.68,ENE,65,0.0,0.0,70,0.00,,CLR,0.00,0.00,VWS V14.01,2013-01-20 03:25:00,
2013-01-19 19:30:00,22.4,14.4,30.68,ENE,66,0.0,0.0,71,0.00,,CLR,0.00,0.00,VWS V14.01,2013-01-20 03:30:00,
2013-01-19 19:36:00,22.4,14.1,30.68,ENE,66,0.0,0.0,70,0.00,,CLR,0.00,0.00,VWS V14.01,2013-01-20 03:36:00,
2013-01-19 19:41:00,22.2,13.9,30.68,ENE,66,0.0,0.0,70,0.00,,CLR,0.00,0.00,VWS V14.01,2013-01-20 03:41:00,
2013-01-19 19:46:00,21.9,13.3,30.68,ENE,66,0.0,0.0,69,0.00,,CLR,0.00,0.00,VWS V14.01,2013-01-20 03:46:00,
2013-01-19 19:51:00,21.5,13.2,30.68,ENE,66,0.0,0.0,70,0.00,,CLR,0.00,0.00,VWS V14.01,2013-01-20 03:51:00,
2013-01-19 19:57:00,21.0,13.1,30.68,ENE,66,0.0,0.0,71,0.00,,CLR,0.00,0.00,VWS V14.01,2013-01-20 03:57:00,
2013-01-19 20:02:00,20.3,11.8,30.68,ENE,66,1.0,1.0,69,0.00,,CLR,0.00,0.00,VWS V14.01,2013-01-20 04:02:00,
2013-01-19 20:07:00,19.3,11.4,30.69,NNW,328,0.0,1.0,71,0.00,,CLR,0.00,0.00,VWS V14.01,2013-01-20 04:07:00,
2013-01-19 20:12:00,19.1,11.9,30.69,NNW,328,0.0,2.0,73,0.00,,CLR,0.00,0.00,VWS V14.01,2013-01-20 04:12:00,
2013-01-19 20:18:00,18.8,11.6,30.69,NNW,328,0.0,1.0,73,0.00,,CLR,0.00,0.00,VWS V14.01,2013-01-20 04:18:00,
2013-01-19 20:23:00,18.7,11.5,30.69,NNW,328,0.0,0.0,73,0.00,,CLR,0.00,0.00,VWS V14.01,2013-01-20 04:23:00,
2013-01-19 20:28:00,18.4,11.2,30.69,NNW,328,0.0,0.0,73,0.00,,CLR,0.00,0.00,VWS V14.01,2013-01-20 04:28:00,
2013-01-19 20:33:00,18.1,10.6,30.70,NNW,328,0.0,0.0,72,0.00,,CLR,0.00,0.00,VWS V14.01,2013-01-20 04:33:00,
2013-01-19 20:38:00,17.9,10.4,30.70,NNW,328,0.0,0.0,72,0.00,,CLR,0.00,0.00,VWS V14.01,2013-01-20 04:38:00,
2013-01-19 20:43:00,17.4,9.9,30.70,NNW,328,0.0,0.0,72,0.00,,CLR,0.00,0.00,VWS V14.01,2013-01-20 04:43:00,
2013-01-19 20:48:00,16.9,9.8,30.70,NNW,328,0.0,0.0,73,0.00,,CLR,0.00,0.00,VWS V14.01,2013-01-20 04:48:00,
2013-01-19 20:53:00,16.5,9.4,30.70,NNW,328,0.0,1.0,73,0.00,,CLR,0.00,0.00,VWS V14.01,2013-01-20 04:53:00,
2013-01-19 20:58:00,16.3,9.8,30.70,NNW,328,0.0,2.0,75,0.00,,CLR,0.00,0.00,VWS V14.01,2013-01-20 04:58:00,
2013-01-19 21:00:00,16.2,9.7,30.70,NNW,328,0.0,2.0,75,0.00,,CLR,0.00,0.00,VWS V14.01,2013-01-20 05:00:00,
2013-01-19 21:01:00,16.2,9.7,30.70,NNW,328,0.0,0.0,75,0.00,,CLR,0.00,0.00,VWS V14.01,2013-01-20 05:01:00,
2013-01-19 21:03:00,16.0,9.5,30.70,NNW,328,1.0,2.0,75,0.00,,CLR,0.00,0.00,VWS V14.01,2013-01-20 05:03:00,
2013-01-19 21:08:00,15.7,9.5,30.70,NNW,328,1.0,2.0,76,0.00,,CLR,0.00,0.00,VWS V14.01,2013-01-20 05:08:00,
2013-01-19 21:13:00,15.6,9.7,30.70,NNW,328,0.0,1.0,77,0.00,,CLR,0.00,0.00,VWS V14.01,2013-01-20 05:13:00,
2013-01-19 21:18:00,15.6,9.7,30.70,NNW,328,0.0,0.0,77,0.00,,CLR,0.00,0.00,VWS V14.01,2013-01-20 05:18:00,
2013-01-19 21:23:00,15.4,9.5,30.70,NNW,328,0.0,0.0,77,0.00,,CLR,0.00,0.00,VWS V14.01,2013-01-20 05:23:00,
2013-01-19 21:28:00,15.2,9.0,30.70,NNW,328,0.0,0.0,76,0.00,,CLR,0.00,0.00,VWS V14.01,2013-01-20 05:28:00,
2013-01-19 21:33:00,14.8,8.3,30.70,NNW,328,0.0,2.0,75,0.00,,CLR,0.00,0.00,VWS V14.01,2013-01-20 05:33:00,
2013-01-19 21:38:00,14.5,8.3,30.70,NNW,328,0.0,0.0,76,0.00,,CLR,0.00,0.00,VWS V14.01,2013-01-20 05:38:00,
2013-01-19 21:43:00,14.3,8.1,30.71,NNW,328,0.0,0.0,76,0.00,,CLR,0.00,0.00,VWS V14.01,2013-01-20 05:43:00,
2013-01-19 21:48:00,14.0,8.4,30.71,NNW,328,0.0,1.0,78,0.00,,CLR,0.00,0.00,VWS V14.01,2013-01-20 05:48:00,
2013-01-19 21:53:00,13.8,8.2,30.71,NNW,328,0.0,0.0,78,0.00,,CLR,0.00,0.00,VWS V14.01,2013-01-20 05:53:00,
2013-01-19 21:58:00,13.8,8.2,30.71,NNW,328,0.0,0.0,78,0.00,,CLR,0.00,0.00,VWS V14.01,2013-01-20 05:58:00,
2013-01-19 22:03:00,13.7,8.1,30.71,NNW,328,0.0,0.0,78,0.00,,CLR,0.00,0.00,VWS V14.01,2013-01-20 06:03:00,
2013-01-19 22:08:00,13.5,8.2,30.71,NNW,328,0.0,0.0,79,0.00,,CLR,0.00,0.00,VWS V14.01,2013-01-20 06:08:00,
2013-01-19 22:13:00,13.5,8.2,30.72,NNW,328,0.0,0.0,79,0.00,,CLR,0.00,0.00,VWS V14.01,2013-01-20 06:13:00,
2013-01-19 22:18:00,13.2,7.9,30.72,NNW,328,1.0,2.0,79,0.00,,CLR,0.00,0.00,VWS V14.01,2013-01-20 06:18:00,
2013-01-19 22:23:00,13.1,8.4,30.72,NNW,328,1.0,3.0,81,0.00,,CLR,0.00,0.00,VWS V14.01,2013-01-20 06:23:00,
2013-01-19 22:28:00,13.1,8.4,30.72,NNW,328,0.0,2.0,81,0.00,,CLR,0.00,0.00,VWS V14.01,2013-01-20 06:28:00,
2013-01-19 22:33:00,13.1,8.4,30.72,NNW,329,1.0,2.0,81,0.00,,CLR,0.00,0.00,VWS V14.01,2013-01-20 06:33:00,
2013-01-19 22:38:00,12.8,8.4,30.72,North,350,1.0,2.0,82,0.00,,CLR,0.00,0.00,VWS V14.01,2013-01-20 06:38:00,
2013-01-19 22:43:00,12.7,8.0,30.72,North,350,0.0,0.0,81,0.00,,CLR,0.00,0.00,VWS V14.01,2013-01-20 06:43:00,
2013-01-19 22:48:00,12.7,8.3,30.72,North,350,0.0,0.0,82,0.00,,CLR,0.00,0.00,VWS V14.01,2013-01-20 06:48:00,
2013-01-19 22:53:00,12.5,7.8,30.72,North,350,0.0,0.0,81,0.00,,CLR,0.00,0.00,VWS V14.01,2013-01-20 06:53:00,
2013-01-19 22:58:00,12.3,7.6,30.72,North,350,0.0,0.0,81,0.00,,CLR,0.00,0.00,VWS V14.01,2013-01-20 06:58:00,
2013-01-19 23:03:00,12.2,7.5,30.72,North,350,0.0,1.0,81,0.00,,CLR,0.00,0.00,VWS V14.01,2013-01-20 07:03:00,
2013-01-19 23:08:00,12.2,7.8,30.72,North,350,0.0,0.0,82,0.00,,CLR,0.00,0.00,VWS V14.01,2013-01-20 07:08:00,
2013-01-19 23:13:00,12.2,7.8,30.72,North,350,0.0,0.0,82,0.00,,CLR,0.00,0.00,VWS V14.01,2013-01-20 07:13:00,
2013-01-19 23:18:00,12.2,7.8,30.72,North,350,0.0,0.0,82,0.00,,CLR,0.00,0.00,VWS V14.01,2013-01-20 07:18:00,
2013-01-19 23:23:00,12.2,7.8,30.72,North,350,0.0,1.0,82,0.00,,CLR,0.00,0.00,VWS V14.01,2013-01-20 07:23:00,
2013-01-19 23:28:00,11.9,7.2,30.72,North,350,0.0,0.0,81,0.00,,CLR,0.00,0.00,VWS V14.01,2013-01-20 07:28:00,
2013-01-19 23:33:00,11.7,7.0,30.72,North,350,0.0,0.0,81,0.00,,CLR,0.00,0.00,VWS V14.01,2013-01-20 07:33:00,
2013-01-19 23:38:00,11.6,6.9,30.72,North,350,0.0,0.0,81,0.00,,CLR,0.00,0.00,VWS V14.01,2013-01-20 07:38:00,
2013-01-19 23:43:00,11.5,6.8,30.72,North,350,0.0,0.0,81,0.00,,CLR,0.00,0.00,VWS V14.01,2013-01-20 07:43:00,
2013-01-19 23:48:00,11.5,6.8,30.72,North,350,0.0,0.0,81,0.00,,CLR,0.00,0.00,VWS V14.01,2013-01-20 07:48:00,
2013-01-19 23:53:00,11.5,6.8,30.72,North,350,0.0,0.0,81,0.00,,CLR,0.00,0.00,VWS V14.01,2013-01-20 07:53:00,
2013-01-19 23:58:00,11.5,6.8,30.72,North,350,0.0,0.0,81,0.00,,CLR,0.00,0.00,VWS V14.01,2013-01-20 07:58:00,